Tracking 17636 objects as of 30-April-2016
HD Live streaming from Space Station
objects crossing your sky now

SL-8 R/B

Track SL-8 R/B now!
10-day predictions


NORAD ID: 6271
Int'l Code: 1972-087J
Perigee: 1,474.4 km
Apogee: 1,599.5 km
Inclination: 74.0 °
Period: 116.6 minutes
Semi major axis: 7907 km
RCS: 6.2723 m2 (large)
Launch date: November 1, 1972
Source: Commonwealth of Independent States (former USSR) (CIS)
Launch site: PLESETSK MISSILE AND SPACE COMPLEX (PKMTR)

Note: This is a ROCKET BODY
Your satellite tracking list
Your tracking list is empty





NASA's NSSDC Master Catalog

Two Line Element Set (TLE):
1 06271U 72087J   16121.16292498  .00000105  00000-0  95187-3 0  9991
2 06271  74.0382 107.7171 0079132 100.7504 334.7134 12.34550817960382
Source of the keplerian elements: AFSPC

N2YO: 463